This is the latest recevied weather packets stored in our database for station/object K0VSC-1. If no packets are shown the sender has not sent any weather packets the latest 10 day(s).
| Time | Temp. | Humidity | Pressure | Rain* | Wind** | Luminosity | Snow |
|---|---|---|---|---|---|---|---|
| 1777564698 | 3.33° C | 61% | 1019.9 hPa | 0 mm | - | 707 W/m² | - |
| 1777564398 | 3.33° C | 60% | 1019.8 hPa | 0 mm | - | 696 W/m² | - |
| 1777564098 | 3.33° C | 62% | 1019.8 hPa | 0 mm | - | 686 W/m² | - |
| 1777563798 | 3.33° C | 61% | 1019.9 hPa | 0 mm | - | 677 W/m² | - |
| 1777563498 | 3.33° C | 61% | 1019.9 hPa | 0 mm | - | 668 W/m² | - |
| 1777563264 | 2.78° C | 61% | 1020 hPa | 0 mm | - | 657 W/m² | - |
| 1777563198 | 2.78° C | 61% | 1020 hPa | 0 mm | - | 657 W/m² | - |
| 1777562898 | 2.78° C | 61% | 1020.1 hPa | 0 mm | - | 643 W/m² | - |
| 1777562598 | 2.78° C | 64% | 1020.1 hPa | 0 mm | - | 636 W/m² | - |
| 1777562298 | 2.78° C | 61% | 1020.1 hPa | 0 mm | - | 626 W/m² | - |
| 1777561998 | 2.78° C | 60% | 1020.2 hPa | 0 mm | - | 613 W/m² | - |
| 1777561698 | 2.78° C | 64% | 1020.1 hPa | 0 mm | - | 603 W/m² | - |
| 1777561398 | 2.78° C | 64% | 1020.1 hPa | 0 mm | - | 591 W/m² | - |
| 1777561098 | 2.22° C | 62% | 1020.1 hPa | 0 mm | - | 580 W/m² | - |
| 1777560798 | 2.22° C | 62% | 1020.1 hPa | 0 mm | - | 568 W/m² | - |
| 1777560498 | 2.22° C | 61% | 1020.1 hPa | 0 mm | - | 555 W/m² | - |
| 1777560198 | 2.22° C | 63% | 1020.2 hPa | 0 mm | - | 541 W/m² | - |
| 1777559898 | 2.22° C | 64% | 1020.1 hPa | 0 mm | - | 531 W/m² | - |
| 1777559598 | 2.22° C | 63% | 1020.3 hPa | 0 mm | - | 517 W/m² | - |
| 1777559298 | 1.67° C | 64% | 1020.2 hPa | 0 mm | - | 504 W/m² | - |
| 1777558998 | 1.67° C | 66% | 1020.3 hPa | 0 mm | - | 492 W/m² | - |
| 1777558698 | 1.67° C | 63% | 1020.1 hPa | 0 mm | - | 478 W/m² | - |
| 1777558398 | 2.22° C | 65% | 1020.2 hPa | 0 mm | - | 464 W/m² | - |
| 1777558098 | 1.67° C | 65% | 1020.2 hPa | 0 mm | - | 450 W/m² | - |
| 1777557798 | 2.22° C | 64% | 1020.1 hPa | 0 mm | - | 434 W/m² | - |
* Rain latest hour (hover to see other rain measurements)
** Current wind speed in m/s (hover to see current wind gust speed)